Skip to content

GuitarMania

sgq
(*.204.48.154) 조회 수 22376 댓글 3
06년도 서울기타콰르텟 금호아트홀 실황 연주입니다


A. Piazzolla Oblivion(망각)
Comment '3'
  • 좁을길로 2007.07.27 22:11 (*.52.62.26)
    헐.. 내가 엄청 좋아하는 오빌리비온을..

    아.. 아깝다 여거 갈껄..
  • 좁은길로 2007.07.27 22:12 (*.52.62.26)
    와 SGQ홈피에 듣기좋은거 엄청많네요
  • 좁은길로 2007.07.27 22:14 (*.52.62.26)
    LAGQ만 듣기 좋은 그룹이 아니었군요..
?

List of Articles
번호 제목 글쓴이 날짜 조회 수
1836 Love Affair 6 2007.06.02 19020
1835 zapateado///rodrigo 13 김은미 2007.06.03 23910
1834 최후의 트레몰로 (리버브효과없는겁니다..;;) 4 file JoDaC 2007.06.09 19121
1833 최후의 트레몰로 입니다 ^^ 32 file JoDaC 2007.06.06 23319
1832 전설 11 file 최병욱 2007.06.06 23239
1831 I believe 13 file orpheus15 2007.06.08 19159
1830 Romance.3번. 10 file 우체국가는길 2007.06.08 23792
1829 Kiss the Rain 이루마 곡 (기타 연주) 44 file 아이모레스 2007.06.12 26579
1828 오 솔레미오 4 file 밀롱가. 2007.06.14 21071
1827 Recuerdos de la Alhambra -F. Tarrega 12 file Jason 2007.06.15 23473
1826 알함브라 다시녹음했습니다~ 14 file 최병욱 2007.06.16 21530
1825 [re] 소르 연습곡 6번-리버브를 넣어보았습니다. 1 file niceplace 2007.06.20 21607
1824 소르 연습곡 6번 8 file niceplace 2007.06.17 21695
1823 Romance.3번. 다시 올려요 6 file 우체국가는길 2007.06.17 25596
1822 뱃노래 - 코스트 12 file fernando 2007.06.19 22279
1821 유키구라모토의 Meditation 18 file 최병욱 2007.06.19 23559
1820 fredric hand의 연습곡 1번 4 file 루하기 2007.06.21 15636
1819 리브라소나티네 3.Fuoco-롤랑디용 27 file MSGr 2007.06.21 28218
1818 바흐 샤콘느 10 file 좁은길로 2007.06.26 22996
1817 쉘부르의 우산 3 file nice guy 2007.06.27 22372
1816 Koyunbaba - C. Domeniconi 25 file 진느 2007.06.27 19687
1815 F. Tarrega,Capricho Arabe 33 file Jason 2007.06.28 22545
1814 Agua e Vinho - Egberto Gismonti 18 file limnz 2007.06.29 21870
1813 BWV1006a 프렐류드 3 file 좁은길로 2007.06.29 21623
1812 이노래어떤가요? Pulo do Gato(P.Bellinati) 15 file MSGr 2007.07.01 26273
1811 L'HYMNE A L'AMOUR / E.PIAF 24 file April 2007.07.04 20742
1810 Kleine Romanze- L. Walker 10 file Jason 2007.07.05 20400
1809 Triste Santuario by Vincent Gomez-슬픈 예배당 17 file Jason 2007.07.05 24264
1808 대성당1악장 8 file 좁은길로 2007.07.05 19950
1807 이루마의 When the love falls 7 file 최병욱 2007.07.07 43300
1806 종소리 12 file 좁은길로 2007.07.07 23263
1805 소르의 마적입니다... 19 file 화가 2007.07.08 27561
1804 brahms-theme and variations 20 file 기타레타 2007.07.09 29514
1803 [영상] 엘레지 Elegie (메르츠 Mertz) 3 2007.07.09 22463
1802 이병우 - 달려 18 file 김상욱 2007.07.09 21832
1801 대성당2악장 4 file 좁은길로 2007.07.09 31204
1800 도적의 노래-ibach 연주 16 file 바하의꿈 2007.07.10 22752
1799 하프시 팟사 완주--! 4 file 좁은길로 2007.07.10 21032
1798 핑거스타일- Sun dance (Kotaro Oshio) 7 file 최병욱 2007.07.11 24906
1797 Giuliani-- Rossiniana No.1 (글로빌 아트홀 실황연주) 15 file LDH 2007.07.11 18512
1796 엔커리지먼트-소르 39 file 기타레타 2007.07.11 22627
1795 이 곡 제목이 뭔가요? 3 file -_ - 2007.07.12 18909
1794 헨델의 아리아 23 file 아이모레스 2007.07.12 22536
1793 G선상의 아리아 - J.S.BACH 43 file 기타레타 2007.07.13 23214
1792 이루마의 Kiss the Rain 6 file 최병욱 2007.07.13 22934
1791 Pierre Bensusan - 아도니스의 정원 12 file 찬찬 2007.07.14 24109
1790 Bach - BWV1007 Prelude & Allemande 16 file 김상욱 2007.07.14 21970
1789 Wonderful tonight 43 file - 情 - 2007.07.14 25039
1788 Variation on Theme of Mozart - F.Sor 32 file Jason 2007.07.15 22967
1787 월량대표아적심(月亮代表我的心) 29 이진성 2007.07.19 25182
1786 Fantasia Arabe by Sabicas 22 file Jason 2007.07.22 18834
1785 샤콘느 뒤에뒤부분 7 file 좁은길로 2007.07.23 19560
1784 유키 구라모토의 Lake Louise(새로운 편곡) 17 file 최병욱 2007.07.23 22756
1783 Aria no.1 - F. Kleynjans 11 file bradpitt 2007.07.24 22655
1782 Septiembre (Maximo Diego Pujol) 21 file 라일 2007.07.26 21341
1781 (이중주) Green Sleeves 20 file niceplace 2007.07.27 24139
1780 BWV1006a Prelude 7 file 좁은길로 2007.07.27 25018
1779 A. Piazzolla Quattro Stagioni (부에노스아이레스의 사계) 1. Primavera portend (봄) 8 file sgq 2007.07.27 22575
» A. Piazzolla Oblivion(망각) 3 file sgq 2007.07.27 22376
1777 A. Piazzolla Liebertango 1 file sgq 2007.07.27 23293
1776 P. Bellinati Baiao de Gude 서울기타콰르텟 4 file sgq 2007.07.27 23187
1775 사람이 꽃보다 아름다워~~~ 4 야매 2007.07.28 23264
1774 Fur Elise by L. Van Beethoven 62 file Jason 2007.07.28 26596
1773 부탁 김효석 2007.07.29 18571
1772 클레이앙스-로망스1번(이중주) 6 file 기타레타 2007.07.30 19091
1771 Lamento No.2 / F. Kleynjans 12 file 이진성 2007.08.01 20505
1770 The old rugged cross by G. Bennard 10 file Jason 2007.08.02 21943
1769 로망스 no.1(이중주)-끌레앙 16 file 체르니 2007.08.04 31714
1768 Sleeprs, Awake! 눈뜨라부르는소리있어 7 file 좁은길로 2007.08.05 19973
1767 Estudio No.12 / F. Sor 13 file 이진성 2007.08.06 22442
1766 Partners in Praise / 안신영님 편곡 10 file orpheus15 2007.08.07 19496
1765 알베니즈-야자나무 아래에서 13 file 기타레타 2007.08.08 28538
1764 로드리고 // 고풍스런 티엔토 30 file 진느 2007.08.08 25121
1763 Sor Etude#6 10 file 밀롱가. 2007.08.10 20309
1762 Classical Gas/Mason Williams -클래식컬 개스 23 file Jason 2007.08.10 22658
1761 Adelita 2 file sky600 2007.08.12 14766
1760 maria luisa 6 file sky600 2007.08.12 23540
1759 sunflower 14 file 한사랑 2007.08.13 21024
1758 Tango En Skai 11 file 좁은길로 2007.08.13 23891
1757 바흐 // Choral from cantata147 arr.David Russell 31 file 진느 2007.08.14 20398
1756 milonga 6 file 2007.08.15 21582
1755 [동영상] Barrios - Una Limosna por el amor de Dios (최후의 트레몰로) 39 file 김상욱 2007.08.17 27472
1754 텅 빈 놀이터 II by devilous 9 file devilous 2007.08.20 20172
1753 Sleepers, Awake! from Cantata BWV140 9 file April 2007.08.20 20057
1752 Yuichi Watanabe - Morning Dew 5 file 2007.08.21 23161
1751 Falla--ThreeCorneredHat(KimMoonHyung & Chung Sehee) 7 file 바하의꿈 2007.08.21 24651
1750 망고레의 Contemplacion (깊은 그리움) 24 file 아이모레스 2007.08.22 21944
1749 헨델의 대장간변주?^^ Handel--Blacksmith Variations 19 file 바하의꿈 2007.08.23 23586
1748 F. Sor의 인커리지먼트 18 file 바하의꿈 2007.08.24 24655
1747 알함브라궁전의 추억 12 file 정면 2007.08.24 21374
1746 죄송한! 탕고 안 스까이 바이 로랑디앙 (조율 맞춰 재업)ㅠ 8 file buyho 2007.08.26 16648
1745 Stairway to Heaven, Classical/Unplugged version 기악 독주 7 file 2007.08.28 25127
1744 Les Feuilles Mortes (고엽) - Joseph Kosma 20 file 고정석 2007.08.29 21343
1743 Beautiful Dreamer(토스토) 7 file 까치 2007.08.30 23044
1742 줄리아니 기타협주곡 5 file buyho 2007.09.04 20445
1741 가을편지 / 안형수 편곡 15 file orpheus15 2007.09.04 22582
1740 녹음은 어떻게 하나요? 2 소르초이 2007.09.05 19561
1739 TOmmy Emmanuel-Angelina 10 file 좁은길로 2007.09.05 19014
1738 내마음의 보석상자(동영상) 7 야매 2007.09.07 24331
1737 Venus(동영상) 4 야매 2007.09.07 27022
Board Pagination ‹ Prev 1 ... 11 12 13 14 15 16 17 18 19 20 21 22 23 24 25 26 27 28 29 30 ... 39 Next ›
/ 39

나눔글꼴 설치 안내


이 PC에는 나눔글꼴이 설치되어 있지 않습니다.

이 사이트를 나눔글꼴로 보기 위해서는
나눔글꼴을 설치해야 합니다.

설치 취소

Designed by sketchbooks.co.kr / sketchbook5 board skin

Sketchbook5, 스케치북5

Sketchbook5, 스케치북5

Sketchbook5, 스케치북5

Sketchbook5, 스케치북5

Powered by Xpress Engine / Designed by hikaru100

abcXYZ, 세종대왕,1234

abcXYZ, 세종대왕,1234